OBJECT F, 47937

Orbit data source: Space-Track

You're viewing an Uncataloged Satellite

Recently launched and/or uncataloged satellites may have evolving metadata. Metadata may include but not limited to: Owner, Maufacturer, Bus, Motor, and Mission.

OBJECT F, 47937 is a satellite in SSO that was launched on Mon, 22 Mar 2021 UTC via a SOYUZ-2-1A launch vehicle from the Tyuratam Missile And Space Complex (TTMTR). Unknown objects in Earth's orbit typically refer to objects detected orbiting the Earth but have not yet been identified or cataloged. These objects could be anything from previously untracked satellites, spent rocket stages, debris from satellite collisions, or even natural meteoroids temporarily captured by Earth's gravity.

Loading next visibility...
Identifier
47937, 2021-022F
Orbit
SSO
Country
Flag of TBDTBD
Related business
None
Manufacturer
Unknown
Mission
Amateur Technology
Bus & Motor
Unknown
Mass
Unknown
Launch date (UTC)
2021-03-22 (5 years ago)
Launch vehicle
SOYUZ-2-1A
Launch site
Tyuratam Missile And Space Complex (TTMTR)
Object type
Unknown
Shape & HBR
Box + 4 Pan, 0.3 m
Radar Cross Section
0.139 m², Medium (>0.1 m² and < 1m²)

Expand to show TLE details & history
Last TLE update: 21 hours ago

TLE from 21 hours ago
0 OBJECT F
1 47937U 21022F   26172.55802584  .00006795  00000-0  21452-3 0  9996
2 47937  97.3885  73.2510 0011611  79.8307 280.4245 15.33106217290380
Epoch: 2026-06-21T13:23Z
TLE epoch observation values (Epoch: 2026-06-21T13:23:33.432Z)
Latitude
0.00004°
Longitude
-37.39488°
Altitude
468.231 km
Speed
7.633 km/s
True Right ascension
04h 53m 00s
True Declination
0° 00' 00"
Sunlit
Object was in daylight at epoch
Visualization orbit readout
Latitude
Unknown
Longitude
Unknown
Altitude
Unknown
Speed
Unknown
Apparent Right ascension
Unknown
Apparent Declination
Unknown
Sunlit
N/A
Visualization observer readout
Local Sidereal Time
21:41:27
Azimuth
Unknown
Elevation
Unknown
Doppler factor
Unknown
Orbital elements
Apogee altitude
471.443 km
Perigee altitude
455.555 km
Semi-major axis
6,841.636 km
Eccentricity
0.00116
Inclination
97.3885°
RAAN
73.251°
Arg. of periapsis
79.8307°
True anomaly
280.29361°
Mean anomaly
280.4245°
Eccentric anomaly
280.35906°
Mean motion
3.83533 °/min
Orbital period
93.86 mins
BSTAR
0.00021452
Loading maneuver chart data...
Computing Atmospheric mass density...
Loading historical data...
Loading historical data...
Loading historical data...
Loading historical data...
Loading historical data...
Loading historical data...
Loading historical data...

Documentation

Showing up to 5 results
|